User: anonymous   Login
Location: Demmingen
(48.6757°N, 10.4375°E)
Time: 21:57:48
(UTC+00:00)
Language:

CZ-2C R/B - Orbit

View from above orbital plane
View from above orbital plane
View from above satellite
View from above satellite

Ground track
Ground track

The orbit data is extracted from the following two-line orbital elements,

1 31114U 07010B   24205.61977667  .00000484  00000-0  24326-3 0  9996
2 31114  98.3373 339.5677 0058614 221.5106 138.1613 14.19819538895404
Epoch (UTC): 23 July 2024 14:52:28
Eccentricity: 0.0058614
inclination: 98.3373°
perigee height: 784 km
apogee height: 868 km
right ascension of ascending node: 339.5677°
argument of perigee: 221.5106°
revolutions per day: 14.19819538
mean anomaly at epoch: 138.1613°
orbit number at epoch: 89540

The dashed part of the orbit path shows where the satellite is in the earth's shadow,  

DLR